Aérodrome :
LOGIN :

S'inscrire | Disclaimer

   EN    FR    IT 

 










Légende :    VFR   VFR Marginal   IFR   IFR Intensif   IFR Très Intensif
Visi : 
Plafond : 
>= 8 km
>= 3000ft
5 à 8 km
1000 à 3000 ft
1500m à 5 km
500 à 1000 ft
800 à 1500m
200 à 500 ft
< 800m
< 200 ft
Symboles :   Orages  Brouillard  Fortes neiges  Fortes précipitations  Vent > 20 kt
SIGMETs :   Divers  Orages  Givrage  Turbulence  Onde Orograph.  Cendres Volcan.







- Altitude de l'aérodrome : 90 ft
- Code IATA : NTE
- Voir les cartes d'approche


LFRS - Nantes

DERNIER METAR :
  • 230330Z AUTO 00000KT CAVOK 15/14 Q1018 TEMPO 4000 BR

METARs EXPIRÉS :
  • 230300Z AUTO VRB01KT CAVOK 15/15 Q1018 TEMPO 4000 BR
  • 230230Z AUTO 01001KT CAVOK 16/15 Q1018 TEMPO 4000 BR
  • 230200Z AUTO 00000KT CAVOK 15/15 Q1018 TEMPO 4000 BR
  • 230130Z AUTO 00000KT CAVOK 15/15 Q1018 TEMPO 4000 BR
  • 230100Z AUTO 24001KT CAVOK 15/14 Q1018 TEMPO 4000 BR

TAF TAF LFRS
Valide du 23 à 00h jusqu'au 24 à 06h UTC


222300Z 2300/2406 VRB03KT CAVOK
PROB30
TEMPO 2302/2306 4000 BR
BECMG 2315/2317 27010KT
BECMG 2320/2323 34005KT
ATIS : +33 2 40 05 12 74
Pas de NOTAMs connus pour ce terrain.



MET'MAP, la Météo Aéronautique d'un coup d'oeil ! - Copyright ORBIFLY Décembre 2007 - Disclaimer

ORBIFLY MET'MAP TEAM :

Programmation & Développement : Alexandra Zaïnal
Conception & Développement : Baudouin d'Aumeries
Co-Programmation & Développement : Marc-Olivier Méhu
Soutien technique & logistique : Manuel Goepfert

Contact : metmap@orbifly.com




SOURCES & CREDITS :

   NOAA